This demonstration page uses our WeatherBlox Daily Observations layout. Learn more.

Left ArrowRight Arrow

39.92423, -83.80882

Hourly Observations for March 5, 2019

Temp ( °F °C ) Dew Point ( °F °C ) Humidity (%) Winds ( mph kmh ) Pressure ( in mb ) Visibility ( mi km ) Precip ( " mm )
12:56 am 00:56 Mostly Clear 7 -13.9 2 -16.7 80 80 W 13 20 30.22 1023 10 16.0934 0 0
1:56 am 01:56 Clear 6 -14.4 1 -17.2 79 79 WSW 10 17 30.23 1024 10 16.0934 0 0
2:56 am 02:56 Clear 6 -14.4 1 -17.2 79 79 WSW 10 17 30.22 1023 10 16.0934 0 0
3:56 am 03:56 Clear 6 -14.4 2 -16.7 83 83 SW 9 15 30.2 1023 10 16.0934 0 0
4:56 am 04:56 Clear 6 -14.4 2 -16.7 83 83 SSW 9 15 30.19 1022 10 16.0934 0 0
5:56 am 05:56 Clear 6 -14.4 3 -16.1 87 87 SSW 9 15 30.18 1022 10 16.0934 0 0
6:56 am 06:56 Mostly Cloudy 7 -13.9 4 -15.6 87 87 SW 12 19 30.18 1022 10 16.0934 0 0
7:56 am 07:56 Cloudy with Light Snow 9 -12.8 5 -15 84 84 SW 13 20 30.17 1022 9 14.48406 0 0.0254
8:56 am 08:56 Cloudy with Light Snow 11 -11.7 6 -14.4 81 81 SW 16 26 30.16 1021 9 14.48406 0 0.0254
9:45 am 09:45 Partly Cloudy 12 -11 5 -15 73 73 WSW 20 31 30.18 1022 10 16.0934 0 0.0254
9:56 am 09:56 Mostly Sunny 13 -10.6 6 -14.4 74 74 WSW 16 26 30.15 1021 10 16.0934 0 0.0254
10:47 am 10:47 Mostly Cloudy 16 -9 9 -13 73 73 W 22 35 30.17 1022 10 16.0934 0 0
10:56 am 10:56 Mostly Cloudy 16 -8.9 7 -13.9 67 67 WSW 20 31 30.15 1021 10 16.0934 0 0
11:56 am 11:56 Cloudy 17 -8.3 9 -12.8 70 70 WSW 18 30 30.16 1021 10 16.0934 0 0
12:49 pm 12:49 Windy with Snow Likely 18 -8 10 -12 73 73 W 23 37 30.18 1022 2.5 4.02335 0 0.0254
12:56 pm 12:56 Windy with Snow Likely 17 -8.3 10 -12.2 74 74 W 22 35 30.16 1021 2.5 4.02335 0 0.0254
1:10 pm 13:10 Windy with Snow Likely 18 -8 10 -12 73 73 W 23 37 30.18 1022 1.75 2.816345 0 0.0254
1:39 pm 13:39 Cloudy with Light Snow 18 -8 10 -12 73 73 W 18 30 30.18 1022 3 4.82802 0 0.0254
1:52 pm 13:52 Windy with Snow Likely 18 -8 10 -12 73 73 W 24 39 30.18 1022 1.75 2.816345 0 0.0254
1:56 pm 13:56 Windy with Snow Likely 17 -8.3 11 -11.7 77 77 WSW 21 33 30.15 1021 1.75 2.816345 0 0.0254
2:34 pm 14:34 Windy with Snow Likely 18 -8 12 -11 79 79 W 22 35 30.18 1022 2 3.21868 0 0.0254
2:41 pm 14:41 Windy with Snow Likely 18 -8 12 -11 79 79 W 20 31 30.18 1022 1.5 2.41401 0 0.0254
2:49 pm 14:49 Cloudy with Light Snow 18 -8 12 -11 79 79 W 17 28 30.18 1022 3 4.82802 0 0.0254
2:56 pm 14:56 Windy with Snow Likely 17 -8.3 12 -11.1 80 80 WSW 22 35 30.16 1021 6 9.65604 0 0.0254
3:27 pm 15:27 Windy with Snow Likely 18 -8 10 -12 73 73 W 23 37 30.19 1022 7 11.26538 0 0.0254
3:54 pm 15:54 Windy with Snow Likely 18 -8 10 -12 73 73 W 20 31 30.2 1023 7 11.26538 0 0.0254
4:05 pm 16:05 Windy with Snow Likely 18 -8 10 -12 73 73 W 21 33 30.2 1023 9 14.48406 0 0.0254
4:38 pm 16:38 Windy with Snow Likely 18 -8 10 -12 73 73 W 21 33 30.21 1023 8 12.87472 0 0.0254
4:56 pm 16:56 Cloudy with Light Snow 18 -7.8 13 -10.6 81 81 W 18 30 30.19 1023 2.5 4.02335 0 0.0254
5:08 pm 17:08 Cloudy with Light Snow 18 -8 12 -11 79 79 W 17 28 30.22 1023 6 9.65604 0 0.0254
5:22 pm 17:22 Cloudy with Light Snow 18 -8 10 -12 73 73 W 16 26 30.23 1024 6 9.65604 0 0.0254
5:56 pm 17:56 Cloudy 17 -8.3 9 -12.8 70 70 WNW 15 24 30.22 1023 10 16.0934 0 0.0254
6:30 pm 18:30 Windy with Snow Likely 16 -9 10 -12 79 79 WNW 20 31 30.26 1025 2 3.21868 0 0.0254
6:33 pm 18:33 Cloudy with Light Snow 16 -9 12 -11 86 86 WNW 18 30 30.26 1025 1 1.60934 0 0.0254
6:42 pm 18:42 Windy with Snow Likely 16 -9 12 -11 86 86 W 20 31 30.26 1025 2 3.21868 0 0.0254
6:49 pm 18:49 Windy with Snow Likely 16 -9 10 -12 79 79 WNW 21 33 30.26 1025 7 11.26538 0 0.0254
6:56 pm 18:56 Windy with Snow Likely 15 -9.4 10 -12.2 80 80 WNW 21 33 30.25 1024 2.5 4.02335 0 0.0254
7:04 pm 19:04 Cloudy with Light Snow 16 -9 10 -12 79 79 W 18 30 30.28 1025 2 3.21868 0 0.0254
7:14 pm 19:14 Cloudy with Light Snow 16 -9 10 -12 79 79 W 13 20 30.29 1026 8 12.87472 0 0.0254
7:56 pm 19:56 Mostly Cloudy 15 -9.4 6 -14.4 67 67 W 16 26 30.26 1025 10 16.0934 0 0.0254
8:56 pm 20:56 Clear 13 -10.6 8 -13.3 81 81 WSW 14 22 30.27 1025 10 16.0934 0 0
9:56 pm 21:56 Clear 13 -10.6 8 -13.3 81 81 WSW 13 20 30.29 1026 10 16.0934 0 0
10:56 pm 22:56 Clear 13 -10.6 9 -12.8 84 84 WSW 13 20 30.29 1026 10 16.0934 0 0
11:56 pm 23:56 Cloudy 15 -9.4 10 -12.2 80 80 WSW 21 33 30.29 1026 10 16.0934 0 0

Powered by AerisWeather